Flag for U.S.A. Weather past 2 weeks in Breckenridge, Colorado, U.S.A.

Now
37 °F

Cloudy.


Feels Like: 29 °F
Forecast: 39 / 52 °F
Wind: 13 mph from West

Location: Copper Mountain - Red Cliff Pass


UV Index: 5 (Moderate)

Visibility: 10 mi


Pressure: 30.38 "Hg

Humidity: 81%

Dew point: 32 °F

Location of BreckenridgeLocation

Historic Weather in Breckenridge

°F

Breckenridge temperature yesterday

Maximum temperature yesterday: 41 °F (at 11:36 AM)
Minimum temperature yesterday: 34 °F (at 1:56 AM)
Average temperature yesterday: 35 °F

Past Weeks' High & Low Weather Summary

 TemperatureHumidityPressure
High46 °F (Apr 18, 1:56 PM)93% (Apr 19, 6:56 PM)30.48 "Hg (Apr 19, 6:56 PM)
Low5 °F (Apr 14, 5:56 AM)19% (Apr 11, 1:56 PM)29.71 "Hg (Apr 13, 12:16 PM)
Average30 °F58%30.17 "Hg
* Reported Apr 5 11:16 AM — Apr 20 11:16 AM, Breckenridge, Weather by CustomWeather, © 2014

Note: Actual official high and low records may vary slightly from our data, if they occured in-between our weather recording intervals... More about our weather records

Advertising

Historic Weather Conditions — Data for Previous 24 hours

 ConditionsComfort  
Time TempWeatherWind HumidityBarometerVisibility
11:16 AM
Apr 20
37 °FCloudy.10 mph81%30.38 "Hg7 mi
10:56 AM34 °FLight snow. Low clouds.9 mph87%30.38 "Hg1 mi
10:36 AM34 °FLight snow. Mostly cloudy.14 mph87%30.37 "Hg1 mi
10:16 AM36 °FBroken clouds.9 mph81%30.36 "Hg10 mi
9:56 AM34 °FBroken clouds.9 mph87%30.36 "Hg10 mi
9:36 AM34 °FBroken clouds.9 mph87%30.36 "Hg10 mi
8:56 AM34 °FFog.13 mph87%30.35 "Hg1 mi
8:36 AM34 °FFog.8 mph87%30.34 "Hg1 mi
8:16 AM34 °FFog.9 mph87%30.34 "Hg0 mi
7:56 AM34 °FLight snow. Low clouds.16 mph87%30.33 "Hg0 mi
7:36 AM34 °FFog.14 mph87%30.33 "Hg0 mi
7:16 AM34 °FFog.13 mph87%30.33 "Hg0 mi
6:56 AM34 °FLight snow. Low clouds.16 mph87%30.31 "Hg0 mi
6:36 AM34 °FFog.13 mph87%30.31 "Hg0 mi
6:16 AM34 °FMostly cloudy.15 mph87%30.31 "Hg7 mi
5:56 AM34 °FFog.20 mph87%30.30 "Hg0 mi
5:36 AM34 °FFog.16 mph87%30.30 "Hg3 mi
5:16 AM34 °FOvercast.12 mph87%30.31 "Hg10 mi
4:56 AM34 °FOvercast.10 mph87%30.31 "Hg10 mi
4:36 AM34 °FMostly cloudy.14 mph87%30.31 "Hg10 mi
4:16 AM34 °FFog.3 mph87%30.31 "Hg5 mi
3:56 AM34 °FFog.10 mph87%30.31 "Hg0 mi
3:36 AM34 °FFog.8 mph87%30.31 "Hg0 mi
3:16 AM34 °FFog.12 mph87%30.31 "Hg0 mi
2:56 AM34 °FFog.12 mph87%30.31 "Hg1 mi
2:36 AM34 °FFog.15 mph87%30.31 "Hg0 mi
2:16 AM34 °FFog.17 mph87%30.31 "Hg1 mi
1:56 AM34 °FMostly cloudy.12 mph87%30.31 "Hg10 mi
1:36 AM34 °FOvercast.9 mph87%30.32 "Hg10 mi
1:16 AM34 °FMostly cloudy.10 mph87%30.33 "Hg10 mi
12:56 AM34 °FMostly cloudy.12 mph87%30.33 "Hg10 mi
12:36 AM34 °FMostly cloudy.6 mph87%30.33 "Hg10 mi
12:16 AM34 °FMostly cloudy.13 mph87%30.33 "Hg10 mi
11:56 PM
Apr 19
34 °FMostly cloudy.7 mph81%30.33 "Hg10 mi
11:36 PM34 °FMostly cloudy.6 mph87%30.33 "Hg10 mi
11:16 PM34 °FMostly cloudy.8 mph87%30.33 "Hg10 mi
10:56 PM34 °FPartly cloudy.6 mph87%30.33 "Hg10 mi
10:36 PM34 °FLight snow. Mostly cloudy.6 mph87%30.33 "Hg3 mi
10:16 PM34 °FFog.3 mph87%30.34 "Hg1 mi
9:56 PM34 °FFog.10 mph87%30.33 "Hg0 mi
9:36 PM34 °FLight snow. Overcast.9 mph87%30.33 "Hg7 mi
9:16 PM34 °FHeavy snow. Low clouds.10 mph87%30.33 "Hg0 mi
8:56 PM34 °FSnow. Low clouds.3 mph93%30.33 "Hg0 mi
8:36 PM34 °FLight snow. Low clouds.5 mph93%30.32 "Hg7 mi
8:16 PM34 °FFog.8 mph93%30.31 "Hg0 mi
7:56 PM34 °FFog.7 mph93%30.31 "Hg1 mi
7:36 PM34 °FLight snow. Low clouds.9 mph93%30.31 "Hg1 mi
7:16 PM34 °FLight snow. Mostly cloudy.10 mph93%30.29 "Hg1 mi
6:56 PM34 °FLight snow. Low clouds.9 mph93%30.30 "Hg0 mi
6:36 PM36 °FLight snow. Low clouds.12 mph87%30.29 "Hg0 mi
6:16 PM36 °FLight snow. Low clouds.8 mph87%30.29 "Hg0 mi
5:56 PM36 °FSnow. Low clouds.10 mph87%30.29 "Hg0 mi
5:36 PM36 °FSnow. Low clouds.10 mph87%30.29 "Hg1 mi
5:16 PM36 °FLow clouds.10 mph87%30.28 "Hg1 mi
4:56 PM37 °FMostly cloudy.6 mph81%30.28 "Hg5 mi
4:36 PM37 °FSnow. Low clouds.8 mph81%30.27 "Hg1 mi
4:16 PM37 °FThunderstorms. More clouds than sun.3 mph81%30.28 "Hg10 mi
3:56 PM37 °FThunderstorms. Cloudy.16 mph81%30.27 "Hg10 mi
3:36 PM37 °FBroken clouds.5 mph75%30.28 "Hg10 mi
3:16 PM39 °FLight snow. Cloudy.6 mph70%30.29 "Hg5 mi
2:56 PM41 °FThunderstorms. Broken clouds.14 mph61%30.29 "Hg10 mi
2:36 PM37 °FBroken clouds.18 mph70%30.29 "Hg10 mi
2:16 PM37 °FLight snow. More clouds than sun.23 mph75%30.28 "Hg7 mi
1:56 PM37 °FMore clouds than sun.14 mph75%30.29 "Hg10 mi
1:36 PM36 °FLight snow. Mostly cloudy.16 mph81%30.29 "Hg1 mi
1:16 PM39 °FLight snow. Cloudy.17 mph61%30.28 "Hg3 mi
12:56 PM41 °FBroken clouds.12 mph53%30.28 "Hg10 mi
12:36 PM41 °FScattered clouds.13 mph53%30.29 "Hg10 mi
12:16 PM41 °FBroken clouds.9 mph57%30.29 "Hg10 mi
Weather by CustomWeather, © 2014

See weather overview